Weather History for Champaign, IL

Change the Weather History Date:

Tuesday, May 27, 2014

  Actual Average Record
Temperature  
Mean Temperature 78 °F 67 °F  
Max Temperature 88 °F 79 °F 95 °F (2012)
Min Temperature 67 °F 55 °F 45 °F (2001)
Degree Days  
Heating Degree Days 0 2  
Month to date heating degree days 134 133  
Since 1 July heating degree days 6486 5797  
Cooling Degree Days 13 4  
Month to date cooling degree days 104 64  
Year to date cooling degree days 107 75  
Growing Degree Days 26 (Base 50)    
Moisture  
Dew Point 63 °F    
Average Humidity 67    
Maximum Humidity 93    
Minimum Humidity 40    
Precipitation  
Precipitation 0.48 in 0.13 in 2.35 in (2000)
Month to date precipitation 5.94 3.98  
Year to date precipitation 13.84 14.59  
Sea Level Pressure  
Sea Level Pressure 29.96 in    
Wind  
Wind Speed 10 mph (SW)    
Max Wind Speed 33 mph    
Max Gust Speed 40 mph    
Visibility 9 miles    
Events Rain , Thunderstorm    
T = Trace of Precipitation, MM = Missing Value Source: NWS Daily Summary

Daily Weather History Graph

Daily Weather History Graph

Search for Another Location

Airport:

Trip Planner

Search our weather history database for the weather conditions in past years. The results will help you decide how hot, cold, wet, or windy it might be!

Date:

Astronomy

May. 27, 2014 Rise Set
Actual Time 5:28 AM CDT 8:12 PM CDT
Civil Twilight 4:56 AM CDT 8:44 PM CDT
Nautical Twilight 4:17 AM CDT 9:24 PM CDT
Astronomical Twilight 3:32 AM CDT 10:09 PM CDT
Moon 4:50 AM CDT (5/27) 7:14 PM CDT (5/27)
Length of Visible Light 15h 47m
Length of Day
14h 43m
Waning Crescent, 1% of the Moon is Illuminated
May 27
Waning Crescent
May 28
New
Jun 5
First Quarter
Jun 12
Full
Jun 19
Last Quarter

Hourly Weather History & Observations

Time (CDT) Temp. Heat Index Dew Point Humidity Pressure Visibility Wind Dir Wind Speed Gust Speed Precip Events Conditions
12:53 AM 72.0 °F - 64.0 °F 76% 30.00 in 10.0 mi SW 9.2 mph - N/A   Scattered Clouds
1:53 AM 71.1 °F - 64.9 °F 81% 29.99 in 10.0 mi SW 6.9 mph - N/A   Partly Cloudy
2:53 AM 70.0 °F - 64.9 °F 84% 29.97 in 10.0 mi SW 5.8 mph - N/A   Overcast
3:53 AM 69.1 °F - 64.9 °F 87% 29.98 in 10.0 mi SSW 9.2 mph - N/A   Clear
4:53 AM 66.9 °F - 64.0 °F 90% 29.97 in 10.0 mi SSW 8.1 mph - N/A   Clear
5:53 AM 68.0 °F - 64.9 °F 90% 29.99 in 10.0 mi SSW 6.9 mph - N/A   Scattered Clouds
6:53 AM 69.1 °F - 64.0 °F 84% 30.00 in 10.0 mi SSW 10.4 mph - N/A   Mostly Cloudy
7:53 AM 71.1 °F - 64.0 °F 78% 30.00 in 10.0 mi SW 9.2 mph - N/A   Clear
8:53 AM 75.0 °F - 62.1 °F 64% 30.01 in 10.0 mi SW 11.5 mph - N/A   Clear
9:53 AM 77.0 °F - 63.0 °F 62% 30.00 in 10.0 mi WSW 9.2 mph - N/A   Clear
10:53 AM 81.0 °F 82.2 °F 63.0 °F 54% 30.00 in 10.0 mi WSW 15.0 mph - N/A   Clear
11:53 AM 84.0 °F 84.4 °F 61.0 °F 46% 29.99 in 10.0 mi WSW 13.8 mph - N/A   Clear
12:53 PM 84.9 °F 85.0 °F 61.0 °F 44% 29.96 in 10.0 mi SW 12.7 mph - N/A   Clear
1:53 PM 86.0 °F 85.4 °F 59.0 °F 40% 29.95 in 10.0 mi SW 15.0 mph 18.4 mph N/A   Partly Cloudy
2:53 PM 84.9 °F 84.8 °F 60.1 °F 43% 29.94 in 10.0 mi SW 12.7 mph 18.4 mph N/A   Scattered Clouds
4:53 PM 82.9 °F 83.3 °F 61.0 °F 47% 29.91 in 10.0 mi West 13.8 mph - N/A   Partly Cloudy
5:53 PM 84.0 °F 83.8 °F 59.0 °F 43% 29.90 in 10.0 mi WSW 11.5 mph - N/A   Partly Cloudy
6:46 PM 84.0 °F 84.0 °F 60.1 °F 44% 29.92 in 10.0 mi WSW 11.5 mph - N/A Thunderstorm Partly Cloudy
6:53 PM 84.0 °F 84.0 °F 60.1 °F 44% 29.90 in 10.0 mi WSW 11.5 mph - N/A Thunderstorm Partly Cloudy
7:09 PM 80.1 °F 81.2 °F 62.1 °F 54% 29.93 in 10.0 mi SSW 16.1 mph 25.3 mph N/A   Clear
7:16 PM 79.0 °F - 62.1 °F 56% 29.93 in 10.0 mi SSW 17.3 mph - N/A Thunderstorm Clear
7:49 PM 78.8 °F - 62.6 °F 57% 29.93 in 10.0 mi South 10.4 mph - N/A   Clear
7:53 PM 79.0 °F - 63.0 °F 58% 29.91 in 10.0 mi South 9.2 mph - N/A   Clear
8:53 PM 75.9 °F - 64.0 °F 67% 29.92 in 10.0 mi SSW 3.5 mph - N/A   Partly Cloudy
9:15 PM 77.0 °F - 62.6 °F 61% 29.94 in 10.0 mi SSW 12.7 mph - N/A Thunderstorm Mostly Cloudy
9:34 PM 70.0 °F - 64.0 °F 81% 29.96 in 2.0 mi WSW 25.3 mph 33.4 mph 0.18 in Rain , Thunderstorm Heavy Thunderstorms and Rain
9:44 PM 69.1 °F - 64.9 °F 87% 29.98 in 1.8 mi SW 6.9 mph - 0.35 in Rain , Thunderstorm Heavy Thunderstorms and Rain
9:53 PM 68.0 °F - - N/A% 29.96 in 1.8 mi North 12.7 mph - 0.43 in Rain , Thunderstorm Heavy Thunderstorms and Rain
10:00 PM 68.0 °F - 60.8 °F 78% 29.97 in 4.0 mi NNE 15.0 mph - 0.03 in Rain , Thunderstorm Thunderstorms and Rain
10:12 PM 68.0 °F - - N/A% 29.97 in 8.0 mi NE 11.5 mph - 0.05 in Rain , Thunderstorm Light Thunderstorms and Rain
10:41 PM 68.0 °F - 64.0 °F 87% 29.95 in 10.0 mi ENE 3.5 mph - 0.05 in   Mostly Cloudy
10:53 PM 68.0 °F - 64.0 °F 87% 29.94 in 10.0 mi SE 3.5 mph - 0.05 in   Mostly Cloudy
11:53 PM 72.0 °F - - N/A% 29.94 in 10.0 mi SSW 8.1 mph - N/A   Scattered Clouds